Location: Unspecified
(0.0000°N, 0.0000°E)
Time: 11:45:03
(UTC+00:00)

Hubble Space Telescope - Visible Passes

Search period start: 23 August 2017 00:00
Search period end: 02 September 2017 00:00
Orbit: 538 x 542 km, 28.5° (Epoch: 22 August)

Date Brightness Start Highest point End Pass type
(mag) Time Alt. Az. Time Alt. Az. Time Alt. Az.
23 Aug 2.3 19:06:28 10° SSW 19:09:36 20° SSE 19:09:39 20° SSE visible
24 Aug 1.8 18:55:56 10° SSW 18:59:32 28° SSE 19:00:50 23° ESE visible
25 Aug 1.4 18:45:32 10° SW 18:49:26 39° SSE 18:52:05 18° E visible
25 Aug 3.9 20:26:57 10° W 20:27:29 13° W 20:27:29 13° W visible
26 Aug 0.9 18:35:15 10° SW 18:39:20 57° SSE 18:43:20 10° ENE visible
26 Aug 3.5 20:17:17 10° W 20:18:46 17° WNW 20:18:46 17° WNW visible
27 Aug 3.6 04:51:20 10° N 04:52:58 12° NNE 04:54:36 10° NE visible
27 Aug 0.7 18:25:04 10° WSW 18:29:14 84° SSE 18:33:22 10° ENE visible
27 Aug 3.4 20:07:51 10° WNW 20:10:01 16° NW 20:10:01 16° NW visible
28 Aug 3.4 04:40:16 10° NNW 04:42:55 16° NNE 04:45:35 10° ENE visible
28 Aug 3.6 19:58:54 10° NW 20:00:26 12° NNW 20:01:14 11° NNW visible
29 Aug 2.9 04:30:28 14° NNW 04:32:52 22° NNE 04:36:08 10° E visible
30 Aug 2.3 04:21:45 27° N 04:22:46 31° NNE 04:26:28 10° E visible
31 Aug 1.8 04:13:01 43° NE 04:13:01 43° NE 04:16:38 10° ESE visible
01 Sep 2.3 04:04:14 33° ESE 04:04:14 33° ESE 04:06:41 10° ESE visible
